SA3PJN-WX Weather Reports


Display with metric or nautical units.
time (UTC)temp
F
wind
direction
speed
MPH
gust
MPH
rain 1hr
in
rain 24hr
in
rain mn
in
humidity
%
barometer
mb
20260902203024 49 278 0.0 2.0 0.00 0.00 0.00 93 957.1
20260902202523 49 126 0.0 2.0 0.00 0.00 0.00 92 957.1
20260902202023 49 347 0.0 2.0 0.00 0.00 0.00 91 957.0
20260902201523 50 60 1.0 5.0 0.00 0.00 0.00 90 957.2
20260902201023 50 52 2.0 7.0 0.00 0.00 0.00 89 957.1
20260902200523 50 156 3.0 7.0 0.00 0.00 0.00 89 957.1
20260902200023 51 228 4.0 7.0 0.00 0.00 0.00 89 957.2
20260902195523 51 229 4.0 7.0 0.00 0.00 0.00 89 957.2
20260902195023 51 236 4.0 7.0 0.00 0.00 0.00 89 957.2
20260902194523 51 238 4.0 8.0 0.00 0.00 0.00 89 957.2
20260902194023 51 229 4.0 8.0 0.00 0.00 0.00 89 957.2
20260902193523 51 234 4.0 8.0 0.00 0.00 0.00 90 957.2
20260902193023 51 224 5.0 9.0 0.00 0.00 0.00 90 957.2
20260902192523 51 228 5.0 9.0 0.00 0.00 0.00 92 957.2
20260902192023 50 234 3.0 7.0 0.00 0.00 0.00 94 957.2
20260902191523 50 228 2.0 7.0 0.00 0.00 0.00 98 957.2
20260902191023 49 186 2.0 6.0 0.00 0.00 0.00 98 957.2
20260902190523 49 69 2.0 5.0 0.00 0.00 0.00 97 957.2
20260902190022 49 52 2.0 5.0 0.00 0.00 0.00 97 957.1
20260902185522 50 174 2.0 4.0 0.00 0.00 0.00 95 957.0
20260902185022 50 78 2.0 4.0 0.00 0.00 0.00 95 956.8
20260902184522 50 71 1.0 4.0 0.00 0.00 0.00 95 956.6
20260902184022 50 19 1.0 2.0 0.00 0.00 0.00 95 956.8
20260902183522 51 355 1.0 4.0 0.00 0.00 0.00 94 956.8
20260902183022 51 336 2.0 4.0 0.00 0.00 0.00 94 956.9
20260902182522 51 288 2.0 6.0 0.00 0.00 0.00 93 956.8
20260902182022 51 311 2.0 7.0 0.00 0.00 0.00 92 956.7
20260902181522 52 249 3.0 9.0 0.00 0.00 0.00 91 956.9
20260902181022 52 234 4.0 13.0 0.00 0.00 0.00 91 956.8
20260902180522 52 241 5.0 13.0 0.00 0.00 0.00 92 956.8
20260902180022 52 236 5.0 13.0 0.00 0.00 0.00 93 956.7
20260902175522 53 209 5.0 12.0 0.00 0.00 0.00 93 956.7
20260902175022 53 236 4.0 11.0 0.00 0.00 0.00 91 956.7
20260902174521 53 242 4.0 10.0 0.00 0.00 0.00 91 956.5
20260902174021 53 268 4.0 8.0 0.00 0.00 0.00 93 956.4
20260902173521 53 285 4.0 9.0 0.00 0.00 0.00 92 956.4
20260902173021 53 297 4.0 10.0 0.00 0.00 0.00 91 956.4
20260902172521 53 264 4.0 10.0 0.00 0.00 0.00 90 956.4
20260902172021 54 265 5.0 11.0 0.00 0.00 0.00 90 956.4
20260902171521 54 284 5.0 11.0 0.00 0.00 0.00 89 956.5
20260902171021 55 286 5.0 12.0 0.00 0.00 0.00 88 956.5
20260902170521 55 269 5.0 12.0 0.00 0.00 0.00 87 956.5
20260902170021 56 246 4.0 11.0 0.00 0.00 0.00 88 956.5
20260902165521 56 255 4.0 11.0 0.00 0.00 0.00 87 956.2
20260902165021 56 216 4.0 10.0 0.00 0.00 0.00 87 956.3
20260902164521 57 273 3.0 9.0 0.00 0.00 0.00 85 956.4
20260902164021 58 250 2.0 9.0 0.00 0.00 0.00 84 956.5
20260902163521 58 128 2.0 6.0 0.00 0.00 0.00 83 956.5
20260902163021 58 228 3.0 6.0 0.00 0.00 0.00 82 956.4
20260902162520 59 297 3.0 7.0 0.00 0.00 0.00 80 956.3
20260902162020 59 304 3.0 9.0 0.00 0.00 0.00 78 956.3
20260902161520 60 269 3.0 9.0 0.00 0.00 0.00 74 956.3
20260902161020 60 249 2.0 6.0 0.00 0.00 0.00 75 956.3
20260902160520 60 233 3.0 11.0 0.00 0.00 0.00 74 956.1
20260902160020 60 160 5.0 15.0 0.00 0.00 0.00 74 956.1
20260902155520 60 113 7.0 17.0 0.00 0.00 0.00 75 956.0
20260902155020 60 114 9.0 18.0 0.00 0.00 0.00 75 955.9
20260902154520 60 106 9.0 18.0 0.00 0.00 0.00 72 955.9
20260902154020 61 109 9.0 17.0 0.00 0.00 0.00 70 956.0
20260902153520 60 96 9.0 16.0 0.00 0.00 0.00 75 956.0
20260902153020 60 97 9.0 15.0 0.00 0.00 0.00 73 956.0
20260902152520 60 105 7.0 15.0 0.00 0.00 0.00 74 956.0
20260902152020 61 91 6.0 13.0 0.00 0.00 0.00 74 956.1
20260902151519 60 109 7.0 13.0 0.00 0.00 0.00 74 956.0
20260902151019 60 90 6.0 13.0 0.00 0.00 0.00 75 956.0
20260902150519 61 85 6.0 13.0 0.00 0.00 0.00 77 955.9
20260902150019 60 65 5.0 10.0 0.00 0.00 0.00 78 955.8
20260902145519 61 100 5.0 9.0 0.00 0.00 0.00 75 955.9
20260902145019 61 77 3.0 11.0 0.00 0.00 0.00 73 956.1
20260902144519 62 176 3.0 11.0 0.00 0.00 0.00 66 956.1
20260902144019 62 54 3.0 10.0 0.00 0.00 0.00 75 956.5
20260902143519 61 212 4.0 10.0 0.00 0.00 0.00 75 956.4
20260902143019 62 245 4.0 10.0 0.00 0.00 0.00 73 956.4
20260902142519 62 232 3.0 11.0 0.00 0.00 0.00 71 956.4
20260902142019 63 260 5.0 15.0 0.00 0.00 0.00 70 956.5
20260902141519 63 175 8.0 17.0 0.00 0.00 0.00 70 956.4
20260902141019 64 104 8.0 17.0 0.00 0.00 0.00 69 956.4
20260902140519 64 100 8.0 16.0 0.00 0.00 0.00 68 956.5
20260902140018 64 226 7.0 16.0 0.00 0.00 0.00 68 956.5
20260902135518 65 97 5.0 16.0 0.00 0.00 0.00 66 956.5
20260902135018 64 118 5.0 14.0 0.00 0.00 0.00 68 956.6
20260902134518 64 146 8.0 15.0 0.00 0.00 0.00 68 956.6
20260902134018 64 109 8.0 15.0 0.00 0.00 0.00 66 956.7
20260902133518 65 108 8.0 14.0 0.00 0.00 0.00 64 956.5
20260902133018 65 75 7.0 14.0 0.00 0.00 0.00 65 956.6
20260902132518 64 115 6.0 14.0 0.00 0.00 0.00 67 956.5
20260902132018 64 74 6.0 12.0 0.00 0.00 0.00 70 956.7
20260902131518 62 104 7.0 12.0 0.00 0.00 0.00 71 956.7
20260902131018 62 112 7.0 13.0 0.00 0.00 0.00 70 956.8
20260902130518 64 107 7.0 13.0 0.00 0.00 0.00 67 956.9
20260902130018 65 86 6.0 12.0 0.00 0.00 0.00 68 957.0
20260902125518 64 113 6.0 12.0 0.00 0.00 0.00 66 957.0
20260902125017 64 107 6.0 13.0 0.00 0.00 0.00 65 956.9
20260902124517 65 95 7.0 15.0 0.00 0.00 0.00 70 957.0
20260902124017 63 134 7.0 15.0 0.00 0.00 0.00 71 957.1
20260902123517 64 66 8.0 15.0 0.00 0.00 0.00 67 957.1
20260902123017 64 109 8.0 15.0 0.00 0.00 0.00 68 957.1
20260902122517 65 164 8.0 15.0 0.00 0.00 0.00 68 957.2
20260902122017 64 87 8.0 16.0 0.00 0.00 0.00 70 957.3
20260902121517 64 114 7.0 16.0 0.00 0.00 0.00 68 957.3
20260902121017 65 111 6.0 14.0 0.00 0.00 0.00 71 957.4
20260902120517 65 105 6.0 15.0 0.00 0.00 0.00 71 957.4
20260902120017 63 98 6.0 15.0 0.00 0.00 0.00 71 957.5
20260902115517 64 115 4.0 11.0 0.00 0.00 0.00 71 957.4
20260902115017 65 152 3.0 10.0 0.00 0.00 0.00 73 957.5
20260902114517 65 217 2.0 10.0 0.00 0.00 0.00 75 957.6
20260902114016 64 82 4.0 15.0 0.00 0.00 0.00 76 957.5
20260902113516 62 239 6.0 15.0 0.00 0.00 0.00 78 957.5
20260902113016 62 99 6.0 14.0 0.00 0.00 0.00 77 957.6
20260902112516 62 67 6.0 10.0 0.00 0.00 0.00 77 957.6
20260902112016 62 83 6.0 12.0 0.00 0.00 0.00 78 957.6
20260902111516 61 91 6.0 12.0 0.00 0.00 0.00 77 957.6
20260902111016 61 87 5.0 11.0 0.00 0.00 0.00 77 957.7
20260902110516 62 114 4.0 9.0 0.00 0.00 0.00 77 957.8
20260902110016 62 110 3.0 9.0 0.00 0.00 0.00 76 957.8
20260902105516 61 104 4.0 9.0 0.00 0.00 0.00 79 957.8
20260902105016 61 120 5.0 9.0 0.00 0.00 0.00 78 957.8
20260902104516 62 76 3.0 8.0 0.00 0.00 0.00 73 957.7
20260902104016 64 67 4.0 10.0 0.00 0.00 0.00 76 957.9
20260902103516 62 82 5.0 10.0 0.00 0.00 0.00 76 957.8
20260902103016 63 98 5.0 10.0 0.00 0.00 0.00 73 957.9
20260902102516 63 71 4.0 9.0 0.00 0.00 0.00 75 957.8
20260902102015 64 112 4.0 11.0 0.00 0.00 0.00 74 957.8
20260902101515 64 283 4.0 11.0 0.00 0.00 0.00 77 958.0
20260902101015 64 129 4.0 11.0 0.00 0.00 0.00 77 957.9
20260902100515 62 97 3.0 10.0 0.00 0.00 0.00 76 957.9
20260902100015 64 76 2.0 10.0 0.00 0.00 0.00 74 958.0
20260902095515 63 38 2.0 7.0 0.00 0.00 0.00 78 958.0
20260902095015 62 286 3.0 7.0 0.00 0.00 0.00 80 958.0
20260902094515 61 113 3.0 8.0 0.00 0.00 0.00 77 957.9
20260902094015 61 98 3.0 8.0 0.00 0.00 0.00 77 958.0
20260902093515 64 222 2.0 9.0 0.00 0.00 0.00 75 958.3
20260902093015 65 76 3.0 11.0 0.00 0.00 0.00 74 958.2
20260902092515 66 147 3.0 11.0 0.00 0.00 0.00 76 958.4
20260902092015 65 315 3.0 9.0 0.00 0.00 0.00 81 958.2
20260902091515 62 128 4.0 9.0 0.00 0.00 0.00 86 958.3
20260902091015 59 110 5.0 11.0 0.00 0.00 0.00 87 958.2
20260902090514 58 112 5.0 11.0 0.00 0.00 0.00 88 958.1
20260902090014 59 113 4.0 10.0 0.00 0.00 0.00 86 958.1
20260902085514 59 114 3.0 9.0 0.00 0.00 0.00 87 958.3
20260902085014 58 76 5.0 10.0 0.00 0.00 0.00 86 958.1
20260902084514 57 242 5.0 10.0 0.00 0.00 0.00 92 958.2
20260902084014 57 71 6.0 11.0 0.00 0.00 0.00 88 958.0
20260902083514 57 82 6.0 11.0 0.00 0.00 0.00 88 958.2
20260902083014 57 60 5.0 11.0 0.00 0.00 0.00 87 957.8
20260902082514 56 111 5.0 9.0 0.00 0.00 0.00 89 957.9
20260902082014 55 72 5.0 9.0 0.00 0.00 0.00 92 957.9
20260902081514 56 94 5.0 9.0 0.00 0.00 0.00 91 957.9
20260902081014 55 76 5.0 9.0 0.00 0.00 0.00 93 957.9
20260902080514 55 5 6.0 10.0 0.00 0.00 0.00 93 957.9
20260902080014 55 52 5.0 10.0 0.00 0.00 0.00 92 958.0
20260902075514 56 66 4.0 9.0 0.00 0.00 0.00 89 957.9
20260902075014 57 121 3.0 7.0 0.00 0.00 0.00 91 958.3
20260902074513 55 102 4.0 7.0 0.00 0.00 0.00 94 958.3
20260902074013 54 112 4.0 7.0 0.00 0.00 0.00 95 958.4
20260902073513 54 105 4.0 7.0 0.00 0.00 0.00 95 958.3
20260902073013 54 126 4.0 8.0 0.00 0.00 0.00 96 958.3
20260902072513 53 91 5.0 9.0 0.00 0.00 0.00 98 958.3
20260902072013 52 120 5.0 9.0 0.00 0.00 0.00 98 958.3
20260902071513 51 82 5.0 8.0 0.00 0.00 0.00 98 958.2
20260902071013 51 63 4.0 8.0 0.00 0.00 0.00 98 958.2
20260902070513 51 64 3.0 8.0 0.00 0.00 0.00 98 958.2
20260902070013 51 28 4.0 8.0 0.00 0.00 0.00 98 958.2
20260902065513 50 75 5.0 8.0 0.00 0.00 0.00 98 958.3
20260902065013 50 65 5.0 8.0 0.00 0.00 0.00 98 958.2
20260902064513 50 82 5.0 8.0 0.00 0.00 0.00 98 958.4
20260902064013 50 58 5.0 8.0 0.00 0.00 0.00 98 958.4
20260902063513 50 59 6.0 8.0 0.00 0.00 0.00 99 958.5
20260902063013 49 72 6.0 10.0 0.00 0.00 0.00 99 958.4
20260902062512 49 81 6.0 10.0 0.00 0.00 0.00 99 958.4
20260902062012 49 79 6.0 9.0 0.00 0.00 0.00 99 958.4
20260902061512 49 68 5.0 9.0 0.00 0.00 0.00 99 958.5
20260902061012 48 72 5.0 8.0 0.00 0.00 0.00 99 958.4
20260902060512 48 65 5.0 8.0 0.00 0.00 0.00 99 958.3
20260902060012 48 64 5.0 8.0 0.00 0.00 0.00 99 958.5
20260902055512 48 13 4.0 8.0 0.00 0.00 0.00 98 958.5
20260902055012 48 60 3.0 8.0 0.00 0.00 0.00 98 958.5
20260902054512 48 29 4.0 12.0 0.00 0.00 0.00 98 958.4
20260902054012 48 53 5.0 12.0 0.00 0.00 0.00 98 958.5
20260902053512 48 67 6.0 12.0 0.00 0.00 0.00 98 958.5
20260902053012 48 64 6.0 10.0 0.00 0.00 0.00 98 958.5
20260902052512 48 68 6.0 10.0 0.00 0.00 0.00 98 958.6
20260902052012 47 76 5.0 8.0 0.00 0.00 0.00 98 958.6
20260902051512 47 58 4.0 7.0 0.00 0.00 0.00 98 958.6
20260902051011 47 77 3.0 6.0 0.00 0.00 0.00 98 958.5
20260902050511 46 346 3.0 6.0 0.00 0.00 0.00 98 958.5
20260902050011 46 323 3.0 5.0 0.00 0.00 0.00 98 958.7
20260902045511 46 331 3.0 6.0 0.00 0.00 0.00 98 958.6
20260902045011 47 316 3.0 6.0 0.00 0.00 0.00 97 958.6
20260902044511 47 312 3.0 6.0 0.00 0.00 0.00 97 958.6
20260902044011 47 356 3.0 5.0 0.00 0.00 0.00 97 958.7
20260902043511 47 338 3.0 5.0 0.00 0.00 0.00 97 958.7
20260902043011 47 357 2.0 6.0 0.00 0.00 0.00 97 958.7
20260902042511 47 9 2.0 6.0 0.00 0.00 0.00 97 958.8
20260902042011 47 358 2.0 6.0 0.00 0.00 0.00 98 958.9
20260902041511 46 76 2.0 8.0 0.00 0.00 0.00 98 958.9
20260902041011 46 353 3.0 8.0 0.00 0.00 0.00 99 958.9
20260902040511 46 25 3.0 6.0 0.00 0.00 0.00 99 958.9
20260902040011 45 354 3.0 6.0 0.00 0.00 0.00 10 959.0
20260902035511 44 345 3.0 5.0 0.00 0.00 0.00 10 959.0
20260902035011 44 321 3.0 5.0 0.00 0.00 0.00 10 959.1
20260902034510 43 327 3.0 5.0 0.00 0.00 0.00 10 959.0
20260902034010 43 316 4.0 5.0 0.00 0.00 0.00 10 959.0
20260902033510 43 306 4.0 5.0 0.00 0.00 0.00 10 959.0
20260902033010 44 305 4.0 5.0 0.00 0.00 0.00 10 959.1
20260902032510 44 306 4.0 5.0 0.00 0.00 0.00 10 959.1
20260902032010 44 331 4.0 6.0 0.00 0.00 0.00 10 959.2
20260902031510 44 315 4.0 6.0 0.00 0.00 0.00 10 959.3
20260902031010 44 318 4.0 6.0 0.00 0.00 0.00 99 959.1
20260902030510 44 330 4.0 7.0 0.00 0.00 0.00 99 959.2
20260902030010 44 332 3.0 7.0 0.00 0.00 0.00 98 959.4
20260902025510 45 340 3.0 6.0 0.00 0.00 0.00 98 959.4
20260902025010 44 319 4.0 6.0 0.00 0.00 0.00 98 959.5
20260902024510 45 306 4.0 6.0 0.00 0.00 0.00 98 959.5
20260902024010 45 309 4.0 6.0 0.00 0.00 0.00 98 959.6
20260902023510 45 307 3.0 6.0 0.00 0.00 0.00 97 959.6
20260902023010 45 11 3.0 5.0 0.00 0.00 0.00 97 959.7
20260902022509 45 317 3.0 6.0 0.00 0.00 0.00 97 959.7
20260902022009 45 330 4.0 6.0 0.00 0.00 0.00 96 959.8
20260902021509 45 303 3.0 6.0 0.00 0.00 0.00 95 959.7
20260902021009 46 322 3.0 5.0 0.00 0.00 0.00 95 959.7
20260902020509 46 317 3.0 5.0 0.00 0.00 0.00 94 959.8
20260902020009 46 328 3.0 6.0 0.00 0.00 0.00 93 959.9
20260902015509 46 321 4.0 6.0 0.00 0.00 0.00 92 960.0
20260902015009 47 341 3.0 5.0 0.00 0.00 0.00 91 959.9
20260902014509 47 317 3.0 5.0 0.00 0.00 0.00 90 959.9
20260902014009 48 333 3.0 6.0 0.00 0.00 0.00 89 960.1
20260902013509 48 346 3.0 6.0 0.00 0.00 0.00 89 960.1
20260902013009 48 12 3.0 6.0 0.00 0.00 0.00 89 960.0
20260902012509 48 18 3.0 6.0 0.00 0.00 0.00 89 960.1
20260902012009 48 348 3.0 6.0 0.00 0.00 0.00 90 960.1
20260902011508 47 359 3.0 6.0 0.00 0.00 0.00 90 960.2
20260902011008 47 341 3.0 6.0 0.00 0.00 0.00 90 960.2
20260902010508 47 328 3.0 5.0 0.00 0.00 0.00 90 960.4
20260902010008 47 13 3.0 5.0 0.00 0.00 0.00 89 960.3
20260902005508 48 330 3.0 6.0 0.00 0.00 0.00 87 960.4
20260902005008 48 356 3.0 6.0 0.00 0.00 0.00 87 960.4
20260902004508 48 353 3.0 6.0 0.00 0.00 0.00 87 960.5
20260902004008 48 356 3.0 6.0 0.00 0.00 0.00 87 960.6
20260902003508 48 358 2.0 5.0 0.00 0.00 0.00 87 960.5
20260902003008 48 356 2.0 3.0 0.00 0.00 0.00 87 960.6
20260902002508 48 330 2.0 5.0 0.00 0.00 0.00 87 960.7
20260902002008 48 317 2.0 5.0 0.00 0.00 0.00 86 960.7
20260902001508 48 340 2.0 5.0 0.00 0.00 0.00 86 960.7
20260902001008 48 348 2.0 5.0 0.00 0.00 0.00 87 960.7
20260902000508 48 345 2.0 5.0 0.00 0.00 0.00 87 960.7
20260902000007 49 350 3.0 5.0 0.00 0.00 0.00 87 960.9
20260901235507 48 326 2.0 5.0 0.00 0.00 0.00 87 960.8
20260901235007 48 347 2.0 4.0 0.00 0.00 0.00 87 961.0
20260901234507 48 15 2.0 5.0 0.00 0.00 0.00 87 961.2
20260901234007 49 8 3.0 6.0 0.00 0.00 0.00 87 961.1
20260901233507 49 56 4.0 6.0 0.00 0.00 0.00 87 961.2
20260901233007 49 63 4.0 7.0 0.00 0.00 0.00 87 961.2
20260901232507 49 57 4.0 7.0 0.00 0.00 0.00 87 961.2
20260901232007 49 75 3.0 6.0 0.00 0.00 0.00 87 961.2
20260901231507 49 31 2.0 6.0 0.00 0.00 0.00 88 961.2
20260901231007 49 30 2.0 5.0 0.00 0.00 0.00 89 961.2
20260901230507 49 353 2.0 6.0 0.00 0.00 0.00 90 961.2
20260901230007 49 5 2.0 9.0 0.00 0.00 0.00 90 961.2
20260901225507 49 35 2.0 9.0 0.00 0.00 0.00 91 961.2
20260901225007 49 4 2.0 6.0 0.00 0.00 0.00 91 961.2
20260901224506 49 58 2.0 6.0 0.00 0.00 0.00 91 961.3
20260901224006 49 59 2.0 5.0 0.00 0.00 0.00 91 961.3
20260901223506 49 352 2.0 5.0 0.00 0.00 0.00 92 961.4
20260901223006 49 52 2.0 5.0 0.00 0.00 0.00 93 961.4
20260901222506 49 87 2.0 6.0 0.00 0.00 0.00 94 961.3
20260901222006 49 54 2.0 6.0 0.00 0.00 0.00 94 961.4
20260901221506 49 16 2.0 5.0 0.00 0.00 0.00 93 961.4
20260901221006 49 352 3.0 6.0 0.00 0.00 0.00 91 961.5
20260901220506 49 2 3.0 6.0 0.00 0.00 0.00 89 961.5
20260901220006 49 350 3.0 5.0 0.00 0.00 0.00 87 961.5
20260901215506 50 350 3.0 6.0 0.00 0.00 0.00 87 961.5
20260901215006 50 331 3.0 6.0 0.00 0.00 0.00 85 961.5
20260901214506 50 341 3.0 6.0 0.00 0.00 0.00 85 961.5
20260901214006 50 338 3.0 6.0 0.00 0.00 0.00 85 961.5
20260901213506 51 339 3.0 4.0 0.00 0.00 0.00 85 961.5
20260901213006 51 325 3.0 4.0 0.00 0.00 0.00 84 961.6
20260901212506 51 325 3.0 5.0 0.00 0.00 0.00 85 961.6
20260901212005 51 335 3.0 5.0 0.00 0.00 0.00 84 961.7
20260901211505 51 325 3.0 5.0 0.00 0.00 0.00 85 961.7
20260901211005 51 334 3.0 5.0 0.00 0.00 0.00 84 961.8
20260901210505 51 325 3.0 5.0 0.00 0.00 0.00 84 961.7
20260901210005 51 324 3.0 5.0 0.00 0.00 0.00 84 961.7
20260901205505 51 337 3.0 4.0 0.00 0.00 0.00 84 961.8
20260901205005 51 330 3.0 4.0 0.00 0.00 0.00 85 961.8
20260901204505 51 337 3.0 4.0 0.00 0.00 0.00 85 961.8
20260901204005 51 315 3.0 4.0 0.00 0.00 0.00 85 961.8
20260901203505 51 319 3.0 4.0 0.00 0.00 0.00 85 961.8